Year,Month,Day,Hour,Minute,Value (Times are PST for temperature in C)
2007,06,20,00,00,14.20
2007,06,20,00,01,14.20
2007,06,20,00,02,14.20
2007,06,20,00,03,14.20
2007,06,20,00,04,14.20
2007,06,20,00,05,14.20
2007,06,20,00,06,14.20
2007,06,20,00,07,14.20
2007,06,20,00,08,14.20
2007,06,20,00,09,14.10
2007,06,20,00,10,14.10
2007,06,20,00,11,14.10
2007,06,20,00,12,14.10
2007,06,20,00,13,14.00
2007,06,20,00,14,14.00
2007,06,20,00,15,14.00
2007,06,20,00,16,14.00
2007,06,20,00,17,14.00
2007,06,20,00,18,14.00
2007,06,20,00,19,14.00
2007,06,20,00,20,14.00
2007,06,20,00,21,14.00
2007,06,20,00,22,14.00
2007,06,20,00,23,14.00
2007,06,20,00,24,14.00
2007,06,20,00,25,14.00
2007,06,20,00,26,14.00
2007,06,20,00,27,14.00
2007,06,20,00,28,14.00
2007,06,20,00,29,14.00
2007,06,20,00,30,14.00
2007,06,20,00,31,14.00
2007,06,20,00,32,14.00
2007,06,20,00,33,14.00
2007,06,20,00,34,14.00
2007,06,20,00,35,14.00
2007,06,20,00,36,14.00
2007,06,20,00,37,14.00
2007,06,20,00,38,14.10
2007,06,20,00,39,14.10
2007,06,20,00,40,14.10
2007,06,20,00,41,14.10
2007,06,20,00,42,14.10
2007,06,20,00,43,14.10
2007,06,20,00,44,14.10
2007,06,20,00,45,14.10
2007,06,20,00,46,14.10
2007,06,20,00,47,14.20
2007,06,20,00,48,14.20
2007,06,20,00,49,14.20
2007,06,20,00,50,14.20
2007,06,20,00,51,14.20
2007,06,20,00,52,14.20
2007,06,20,00,53,14.20
2007,06,20,00,54,14.20
2007,06,20,00,55,14.20
2007,06,20,00,56,14.20
2007,06,20,00,57,14.20
2007,06,20,00,58,14.20
2007,06,20,00,59,14.20
2007,06,20,01,00,14.20
2007,06,20,01,01,14.20
2007,06,20,01,02,14.20
2007,06,20,01,03,14.20
2007,06,20,01,04,14.20
2007,06,20,01,05,14.20
2007,06,20,01,06,14.20
2007,06,20,01,07,14.10
2007,06,20,01,08,14.00
2007,06,20,01,09,14.00
2007,06,20,01,10,13.90
2007,06,20,01,11,13.80
2007,06,20,01,12,13.70
2007,06,20,01,13,13.70
2007,06,20,01,14,13.60
2007,06,20,01,15,13.60
2007,06,20,01,16,13.50
2007,06,20,01,17,13.40
2007,06,20,01,18,13.40
2007,06,20,01,19,13.30
2007,06,20,01,20,13.30
2007,06,20,01,21,13.30
2007,06,20,01,22,13.30
2007,06,20,01,23,13.20
2007,06,20,01,24,13.20
2007,06,20,01,25,13.10
2007,06,20,01,26,13.10
2007,06,20,01,27,13.10
2007,06,20,01,28,13.10
2007,06,20,01,29,13.00
2007,06,20,01,30,13.00
2007,06,20,01,31,13.00
2007,06,20,01,32,13.00
2007,06,20,01,33,12.90
2007,06,20,01,34,12.90
2007,06,20,01,35,12.90
2007,06,20,01,36,12.90
2007,06,20,01,37,12.80
2007,06,20,01,38,12.80
2007,06,20,01,39,12.80
2007,06,20,01,40,12.80
2007,06,20,01,41,12.80
2007,06,20,01,42,12.80
2007,06,20,01,43,12.80
2007,06,20,01,44,12.80
2007,06,20,01,45,12.70
2007,06,20,01,46,12.70
2007,06,20,01,47,12.60
2007,06,20,01,48,12.60
2007,06,20,01,49,12.50
2007,06,20,01,50,12.50
2007,06,20,01,51,12.50
2007,06,20,01,52,12.40
2007,06,20,01,53,12.40
2007,06,20,01,54,12.40
2007,06,20,01,55,12.30
2007,06,20,01,56,12.30
2007,06,20,01,57,12.30
2007,06,20,01,58,12.30
2007,06,20,01,59,12.30
2007,06,20,02,00,12.20
2007,06,20,02,01,12.20
2007,06,20,02,02,12.20
2007,06,20,02,03,12.10
2007,06,20,02,04,12.10
2007,06,20,02,05,12.10
2007,06,20,02,06,12.00
2007,06,20,02,07,12.00
2007,06,20,02,08,12.00
2007,06,20,02,09,11.90
2007,06,20,02,10,11.90
2007,06,20,02,11,11.90
2007,06,20,02,12,11.90
2007,06,20,02,13,11.80
2007,06,20,02,14,11.80
2007,06,20,02,15,11.80
2007,06,20,02,16,11.80
2007,06,20,02,17,11.80
2007,06,20,02,18,11.80
2007,06,20,02,19,11.80
2007,06,20,02,20,11.80
2007,06,20,02,21,11.70
2007,06,20,02,22,11.70
2007,06,20,02,23,11.70
2007,06,20,02,24,11.70
2007,06,20,02,25,11.70
2007,06,20,02,26,11.70
2007,06,20,02,27,11.70
2007,06,20,02,28,11.70
2007,06,20,02,29,11.70
2007,06,20,02,30,11.70
2007,06,20,02,31,11.60
2007,06,20,02,32,11.60
2007,06,20,02,33,11.60
2007,06,20,02,34,11.60
2007,06,20,02,35,11.60
2007,06,20,02,36,11.60
2007,06,20,02,37,11.60
2007,06,20,02,38,11.60
2007,06,20,02,39,11.60
2007,06,20,02,40,11.60
2007,06,20,02,41,11.60
2007,06,20,02,42,11.60
2007,06,20,02,43,11.60
2007,06,20,02,44,11.60
2007,06,20,02,45,11.60
2007,06,20,02,46,11.60
2007,06,20,02,47,11.60
2007,06,20,02,48,11.60
2007,06,20,02,49,11.60
2007,06,20,02,50,11.60
2007,06,20,02,51,11.60
2007,06,20,02,52,11.60
2007,06,20,02,53,11.60
2007,06,20,02,54,11.60
2007,06,20,02,55,11.60
2007,06,20,02,56,11.60
2007,06,20,02,57,11.60
2007,06,20,02,58,11.60
2007,06,20,02,59,11.60
2007,06,20,03,00,11.50
2007,06,20,03,01,11.40
2007,06,20,03,02,11.40
2007,06,20,03,03,11.40
2007,06,20,03,04,11.40
2007,06,20,03,05,11.40
2007,06,20,03,06,11.40
2007,06,20,03,07,11.40
2007,06,20,03,08,11.40
2007,06,20,03,09,11.40
2007,06,20,03,10,11.30
2007,06,20,03,11,11.30
2007,06,20,03,12,11.30
2007,06,20,03,13,11.20
2007,06,20,03,14,11.20
2007,06,20,03,15,11.20
2007,06,20,03,16,11.10
2007,06,20,03,17,11.10
2007,06,20,03,18,11.10
2007,06,20,03,19,11.10
2007,06,20,03,20,11.10
2007,06,20,03,21,11.10
2007,06,20,03,22,11.10
2007,06,20,03,23,11.10
2007,06,20,03,24,11.10
2007,06,20,03,25,11.00
2007,06,20,03,26,10.90
2007,06,20,03,27,10.90
2007,06,20,03,28,10.90
2007,06,20,03,29,10.90
2007,06,20,03,30,10.90
2007,06,20,03,31,10.90
2007,06,20,03,32,10.90
2007,06,20,03,33,10.90
2007,06,20,03,34,10.90
2007,06,20,03,35,10.90
2007,06,20,03,36,10.90
2007,06,20,03,37,10.90
2007,06,20,03,38,10.90
2007,06,20,03,39,10.90
2007,06,20,03,40,10.90
2007,06,20,03,41,10.90
2007,06,20,03,42,10.90
2007,06,20,03,43,10.90
2007,06,20,03,44,10.90
2007,06,20,03,45,10.90
2007,06,20,03,46,10.90
2007,06,20,03,47,10.90
2007,06,20,03,48,10.90
2007,06,20,03,49,10.90
2007,06,20,03,50,10.90
2007,06,20,03,51,10.90
2007,06,20,03,52,10.80
2007,06,20,03,53,10.80
2007,06,20,03,54,10.80
2007,06,20,03,55,10.80
2007,06,20,03,56,10.80
2007,06,20,03,57,10.80
2007,06,20,03,58,10.80
2007,06,20,03,59,10.80
2007,06,20,04,00,10.80
2007,06,20,04,01,10.70
2007,06,20,04,02,10.70
2007,06,20,04,03,10.70
2007,06,20,04,04,10.70
2007,06,20,04,05,10.70
2007,06,20,04,06,10.70
2007,06,20,04,07,10.60
2007,06,20,04,08,10.60
2007,06,20,04,09,10.60
2007,06,20,04,10,10.60
2007,06,20,04,11,10.60
2007,06,20,04,12,10.60
2007,06,20,04,13,10.60
2007,06,20,04,14,10.60
2007,06,20,04,15,10.60
2007,06,20,04,16,10.60
2007,06,20,04,17,10.60
2007,06,20,04,18,10.60
2007,06,20,04,19,10.60
2007,06,20,04,20,10.60
2007,06,20,04,21,10.60
2007,06,20,04,22,10.50
2007,06,20,04,23,10.40
2007,06,20,04,24,10.40
2007,06,20,04,25,10.40
2007,06,20,04,26,10.40
2007,06,20,04,27,10.40
2007,06,20,04,28,10.40
2007,06,20,04,29,10.40
2007,06,20,04,30,10.40
2007,06,20,04,31,10.40
2007,06,20,04,32,10.40
2007,06,20,04,33,10.30
2007,06,20,04,34,10.30
2007,06,20,04,35,10.30
2007,06,20,04,36,10.30
2007,06,20,04,37,10.30
2007,06,20,04,38,10.30
2007,06,20,04,39,10.30
2007,06,20,04,40,10.30
2007,06,20,04,41,10.30
2007,06,20,04,42,10.30
2007,06,20,04,43,10.30
2007,06,20,04,44,10.30
2007,06,20,04,45,10.30
2007,06,20,04,46,10.30
2007,06,20,04,47,10.30
2007,06,20,04,48,10.30
2007,06,20,04,49,10.30
2007,06,20,04,50,10.40
2007,06,20,04,51,10.40
2007,06,20,04,52,10.40
2007,06,20,04,53,10.40
2007,06,20,04,54,10.40
2007,06,20,04,55,10.40
2007,06,20,04,56,10.40
2007,06,20,04,57,10.40
2007,06,20,04,58,10.30
2007,06,20,04,59,10.30
2007,06,20,05,00,10.30
2007,06,20,05,01,10.30
2007,06,20,05,02,10.30
2007,06,20,05,03,10.30
2007,06,20,05,04,10.30
2007,06,20,05,05,10.30
2007,06,20,05,06,10.30
2007,06,20,05,07,10.30
2007,06,20,05,08,10.30
2007,06,20,05,09,10.30
2007,06,20,05,10,10.30
2007,06,20,05,11,10.20
2007,06,20,05,12,10.20
2007,06,20,05,13,10.20
2007,06,20,05,14,10.20
2007,06,20,05,15,10.20
2007,06,20,05,16,10.20
2007,06,20,05,17,10.20
2007,06,20,05,18,10.20
2007,06,20,05,19,10.20
2007,06,20,05,20,10.20
2007,06,20,05,21,10.20
2007,06,20,05,22,10.20
2007,06,20,05,23,10.20
2007,06,20,05,24,10.20
2007,06,20,05,25,10.20
2007,06,20,05,26,10.20
2007,06,20,05,27,10.20
2007,06,20,05,28,10.20
2007,06,20,05,29,10.20
2007,06,20,05,30,10.20
2007,06,20,05,31,10.20
2007,06,20,05,32,10.20
2007,06,20,05,33,10.20
2007,06,20,05,34,10.20
2007,06,20,05,35,10.20
2007,06,20,05,36,10.10
2007,06,20,05,37,10.10
2007,06,20,05,38,10.20
2007,06,20,05,39,10.20
2007,06,20,05,40,10.20
2007,06,20,05,41,10.20
2007,06,20,05,42,10.20
2007,06,20,05,43,10.20
2007,06,20,05,44,10.30
2007,06,20,05,45,10.30
2007,06,20,05,46,10.30
2007,06,20,05,47,10.40
2007,06,20,05,48,10.40
2007,06,20,05,49,10.40
2007,06,20,05,50,10.40
2007,06,20,05,51,10.40
2007,06,20,05,52,10.60
2007,06,20,05,53,10.60
2007,06,20,05,54,10.60
2007,06,20,05,55,10.60
2007,06,20,05,56,10.60
2007,06,20,05,57,10.60
2007,06,20,05,58,10.60
2007,06,20,05,59,10.60
2007,06,20,06,00,10.60
2007,06,20,06,01,10.70
2007,06,20,06,02,10.70
2007,06,20,06,03,10.70
2007,06,20,06,04,10.80
2007,06,20,06,05,10.90
2007,06,20,06,06,10.90
2007,06,20,06,07,11.00
2007,06,20,06,08,11.10
2007,06,20,06,09,11.20
2007,06,20,06,10,11.20
2007,06,20,06,11,11.30
2007,06,20,06,12,11.30
2007,06,20,06,13,11.40
2007,06,20,06,14,11.40
2007,06,20,06,15,11.40
2007,06,20,06,16,11.40
2007,06,20,06,17,11.60
2007,06,20,06,18,11.60
2007,06,20,06,19,11.60
2007,06,20,06,20,11.60
2007,06,20,06,21,11.60
2007,06,20,06,22,11.60
2007,06,20,06,23,11.60
2007,06,20,06,24,11.70
2007,06,20,06,25,11.80
2007,06,20,06,26,11.90
2007,06,20,06,27,11.90
2007,06,20,06,28,11.90
2007,06,20,06,29,12.00
2007,06,20,06,30,12.00
2007,06,20,06,31,12.10
2007,06,20,06,32,12.10
2007,06,20,06,33,12.30
2007,06,20,06,34,12.30
2007,06,20,06,35,12.40
2007,06,20,06,36,12.50
2007,06,20,06,37,12.50
2007,06,20,06,38,12.50
2007,06,20,06,39,12.60
2007,06,20,06,40,12.50
2007,06,20,06,41,12.60
2007,06,20,06,42,12.60
2007,06,20,06,43,12.60
2007,06,20,06,44,12.70
2007,06,20,06,45,12.80
2007,06,20,06,46,12.90
2007,06,20,06,47,13.00
2007,06,20,06,48,13.10
2007,06,20,06,49,13.20
2007,06,20,06,50,13.40
2007,06,20,06,51,13.50
2007,06,20,06,52,13.60
2007,06,20,06,53,13.70
2007,06,20,06,54,13.70
2007,06,20,06,55,13.80
2007,06,20,06,56,13.80
2007,06,20,06,57,13.90
2007,06,20,06,58,13.90
2007,06,20,06,59,14.00
2007,06,20,07,00,14.00
2007,06,20,07,01,14.00
2007,06,20,07,02,14.10
2007,06,20,07,03,14.10
2007,06,20,07,04,14.10
2007,06,20,07,05,14.10
2007,06,20,07,06,14.10
2007,06,20,07,07,14.10
2007,06,20,07,08,14.20
2007,06,20,07,09,14.20
2007,06,20,07,10,14.20
2007,06,20,07,11,14.20
2007,06,20,07,12,14.20
2007,06,20,07,13,14.20
2007,06,20,07,14,14.20
2007,06,20,07,15,14.20
2007,06,20,07,16,14.20
2007,06,20,07,17,14.20
2007,06,20,07,18,14.20
2007,06,20,07,19,14.20
2007,06,20,07,20,14.10
2007,06,20,07,21,14.10
2007,06,20,07,22,14.00
2007,06,20,07,23,13.90
2007,06,20,07,24,13.90
2007,06,20,07,25,13.90
2007,06,20,07,26,13.90
2007,06,20,07,27,13.90
2007,06,20,07,28,13.90
2007,06,20,07,29,13.90
2007,06,20,07,30,13.90
2007,06,20,07,31,13.90
2007,06,20,07,32,14.00
2007,06,20,07,33,14.00
2007,06,20,07,34,14.00
2007,06,20,07,35,14.00
2007,06,20,07,36,14.10
2007,06,20,07,37,14.10
2007,06,20,07,38,14.10
2007,06,20,07,39,14.20
2007,06,20,07,40,14.20
2007,06,20,07,41,14.30
2007,06,20,07,42,14.30
2007,06,20,07,43,14.30
2007,06,20,07,44,14.30
2007,06,20,07,45,14.30
2007,06,20,07,46,14.40
2007,06,20,07,47,14.40
2007,06,20,07,48,14.40
2007,06,20,07,49,14.50
2007,06,20,07,50,14.50
2007,06,20,07,51,14.50
2007,06,20,07,52,14.60
2007,06,20,07,53,14.60
2007,06,20,07,54,14.70
2007,06,20,07,55,14.80
2007,06,20,07,56,14.80
2007,06,20,07,57,14.90
2007,06,20,07,58,14.90
2007,06,20,07,59,14.90
2007,06,20,08,00,15.00
2007,06,20,08,01,15.00
2007,06,20,08,02,15.10
2007,06,20,08,03,15.10
2007,06,20,08,04,15.20
2007,06,20,08,05,15.20
2007,06,20,08,06,15.30
2007,06,20,08,07,15.30
2007,06,20,08,08,15.40
2007,06,20,08,09,15.50
2007,06,20,08,10,15.50
2007,06,20,08,11,15.60
2007,06,20,08,12,15.60
2007,06,20,08,13,15.60
2007,06,20,08,14,15.70
2007,06,20,08,15,15.70
2007,06,20,08,16,15.70
2007,06,20,08,17,15.80
2007,06,20,08,18,15.80
2007,06,20,08,19,15.80
2007,06,20,08,20,15.80
2007,06,20,08,21,15.80
2007,06,20,08,22,15.80
2007,06,20,08,23,15.80
2007,06,20,08,24,15.80
2007,06,20,08,25,15.90
2007,06,20,08,26,15.90
2007,06,20,08,27,16.00
2007,06,20,08,28,16.10
2007,06,20,08,29,16.10
2007,06,20,08,30,16.20
2007,06,20,08,31,16.10
2007,06,20,08,32,16.10
2007,06,20,08,33,16.10
2007,06,20,08,34,16.00
2007,06,20,08,35,15.90
2007,06,20,08,36,15.80
2007,06,20,08,37,15.80
2007,06,20,08,38,15.70
2007,06,20,08,39,15.60
2007,06,20,08,40,15.60
2007,06,20,08,41,15.60
2007,06,20,08,42,15.50
2007,06,20,08,43,15.50
2007,06,20,08,44,15.50
2007,06,20,08,45,15.50
2007,06,20,08,46,15.50
2007,06,20,08,47,15.50
2007,06,20,08,48,15.50
2007,06,20,08,49,15.60
2007,06,20,08,50,15.60
2007,06,20,08,51,15.60
2007,06,20,08,52,15.60
2007,06,20,08,53,15.60
2007,06,20,08,54,15.60
2007,06,20,08,55,15.60
2007,06,20,08,56,15.70
2007,06,20,08,57,15.80
2007,06,20,08,58,15.80
2007,06,20,08,59,15.80
2007,06,20,09,00,16.00
2007,06,20,09,01,16.10
2007,06,20,09,02,16.10
2007,06,20,09,03,16.10
2007,06,20,09,04,15.90
2007,06,20,09,05,15.90
2007,06,20,09,06,15.80
2007,06,20,09,07,15.60
2007,06,20,09,08,15.50
2007,06,20,09,09,15.30
2007,06,20,09,10,15.20
2007,06,20,09,11,15.10
2007,06,20,09,12,14.90
2007,06,20,09,13,14.80
2007,06,20,09,14,14.70
2007,06,20,09,15,14.60
2007,06,20,09,16,14.50
2007,06,20,09,17,14.50
2007,06,20,09,18,14.50
2007,06,20,09,19,14.50
2007,06,20,09,20,14.50
2007,06,20,09,21,14.50
2007,06,20,09,22,14.40
2007,06,20,09,23,14.30
2007,06,20,09,24,14.30
2007,06,20,09,25,14.40
2007,06,20,09,26,14.40
2007,06,20,09,27,14.50
2007,06,20,09,28,14.60
2007,06,20,09,29,14.70
2007,06,20,09,30,14.70
2007,06,20,09,31,14.70
2007,06,20,09,32,14.70
2007,06,20,09,33,14.70
2007,06,20,09,34,14.70
2007,06,20,09,35,14.80
2007,06,20,09,36,14.80
2007,06,20,09,37,14.80
2007,06,20,09,38,14.90
2007,06,20,09,39,15.00
2007,06,20,09,40,15.00
2007,06,20,09,41,15.10
2007,06,20,09,42,15.20
2007,06,20,09,43,15.30
2007,06,20,09,44,15.30
2007,06,20,09,45,15.30
2007,06,20,09,46,15.30
2007,06,20,09,47,15.40
2007,06,20,09,48,15.40
2007,06,20,09,49,15.50
2007,06,20,09,50,15.60
2007,06,20,09,51,15.60
2007,06,20,09,52,15.70
2007,06,20,09,53,15.60
2007,06,20,09,54,15.60
2007,06,20,09,55,15.60
2007,06,20,09,56,15.50
2007,06,20,09,57,15.50
2007,06,20,09,58,15.40
2007,06,20,09,59,15.30
2007,06,20,10,00,15.30
2007,06,20,10,01,15.30
2007,06,20,10,02,15.30
2007,06,20,10,03,15.40
2007,06,20,10,04,15.40
2007,06,20,10,05,15.40
2007,06,20,10,06,15.30
2007,06,20,10,07,15.40
2007,06,20,10,08,15.50
2007,06,20,10,09,15.50
2007,06,20,10,10,15.50
2007,06,20,10,11,15.50
2007,06,20,10,12,15.60
2007,06,20,10,13,15.60
2007,06,20,10,14,15.70
2007,06,20,10,15,15.80
2007,06,20,10,16,15.80
2007,06,20,10,17,15.90
2007,06,20,10,18,16.10
2007,06,20,10,19,16.10
2007,06,20,10,20,16.30
2007,06,20,10,21,16.30
2007,06,20,10,22,16.40
2007,06,20,10,23,16.50
2007,06,20,10,24,16.60
2007,06,20,10,25,16.70
2007,06,20,10,26,16.70
2007,06,20,10,27,16.90
2007,06,20,10,28,17.00
2007,06,20,10,29,17.10
2007,06,20,10,30,17.30
2007,06,20,10,31,17.40
2007,06,20,10,32,17.60
2007,06,20,10,33,17.70
2007,06,20,10,34,17.80
2007,06,20,10,35,17.90
2007,06,20,10,36,17.90
2007,06,20,10,37,17.90
2007,06,20,10,38,17.90
2007,06,20,10,39,17.90
2007,06,20,10,40,17.90
2007,06,20,10,41,17.80
2007,06,20,10,42,17.80
2007,06,20,10,43,17.70
2007,06,20,10,44,17.70
2007,06,20,10,45,17.70
2007,06,20,10,46,17.70
2007,06,20,10,47,17.70
2007,06,20,10,48,17.70
2007,06,20,10,49,17.80
2007,06,20,10,50,17.90
2007,06,20,10,51,17.90
2007,06,20,10,52,18.10
2007,06,20,10,53,18.20
2007,06,20,10,54,18.30
2007,06,20,10,55,18.30
2007,06,20,10,56,18.50
2007,06,20,10,57,18.70
2007,06,20,10,58,18.90
2007,06,20,10,59,19.00
2007,06,20,11,00,19.10
2007,06,20,11,01,19.30
2007,06,20,11,02,19.40
2007,06,20,11,03,19.40
2007,06,20,11,04,19.50
2007,06,20,11,05,19.60
2007,06,20,11,06,19.60
2007,06,20,11,07,19.70
2007,06,20,11,08,19.80
2007,06,20,11,09,19.90
2007,06,20,11,10,19.90
2007,06,20,11,11,20.00
2007,06,20,11,12,20.10
2007,06,20,11,13,20.20
2007,06,20,11,14,20.20
2007,06,20,11,15,20.20
2007,06,20,11,16,20.30
2007,06,20,11,17,20.30
2007,06,20,11,18,20.30
2007,06,20,11,19,20.40
2007,06,20,11,20,20.40
2007,06,20,11,21,20.50
2007,06,20,11,22,20.50
2007,06,20,11,23,20.60
2007,06,20,11,24,20.60
2007,06,20,11,25,20.60
2007,06,20,11,26,20.50
2007,06,20,11,27,20.40
2007,06,20,11,28,20.30
2007,06,20,11,29,20.30
2007,06,20,11,30,20.20
2007,06,20,11,31,20.20
2007,06,20,11,32,20.20
2007,06,20,11,33,20.20
2007,06,20,11,34,20.20
2007,06,20,11,35,20.30
2007,06,20,11,36,20.30
2007,06,20,11,37,20.20
2007,06,20,11,38,20.20
2007,06,20,11,39,20.20
2007,06,20,11,40,20.20
2007,06,20,11,41,20.20
2007,06,20,11,42,20.30
2007,06,20,11,43,20.30
2007,06,20,11,44,20.40
2007,06,20,11,45,20.40
2007,06,20,11,46,20.50
2007,06,20,11,47,20.50
2007,06,20,11,48,20.60
2007,06,20,11,49,20.60
2007,06,20,11,50,20.60
2007,06,20,11,51,20.60
2007,06,20,11,52,20.50
2007,06,20,11,53,20.50
2007,06,20,11,54,20.50
2007,06,20,11,55,20.50
2007,06,20,11,56,20.50
2007,06,20,11,57,20.60
2007,06,20,11,58,20.70
2007,06,20,11,59,20.80
2007,06,20,12,00,20.90
2007,06,20,12,01,21.00
2007,06,20,12,02,21.10
2007,06,20,12,03,21.20
2007,06,20,12,04,21.20
2007,06,20,12,05,21.30
2007,06,20,12,06,21.40
2007,06,20,12,07,21.50
2007,06,20,12,08,21.70
2007,06,20,12,09,21.80
2007,06,20,12,10,21.80
2007,06,20,12,11,21.90
2007,06,20,12,12,22.00
2007,06,20,12,13,22.00
2007,06,20,12,14,22.00
2007,06,20,12,15,22.10
2007,06,20,12,16,22.00
2007,06,20,12,17,22.00
2007,06,20,12,18,22.00
2007,06,20,12,19,22.00
2007,06,20,12,20,22.10
2007,06,20,12,21,22.10
2007,06,20,12,22,22.00
2007,06,20,12,23,22.10
2007,06,20,12,24,22.10
2007,06,20,12,25,22.20
2007,06,20,12,26,22.20
2007,06,20,12,27,22.10
2007,06,20,12,28,22.10
2007,06,20,12,29,22.10
2007,06,20,12,30,22.10
2007,06,20,12,31,22.00
2007,06,20,12,32,22.00
2007,06,20,12,33,22.00
2007,06,20,12,34,22.10
2007,06,20,12,35,22.10
2007,06,20,12,36,22.10
2007,06,20,12,37,22.20
2007,06,20,12,38,22.30
2007,06,20,12,39,22.30
2007,06,20,12,40,22.40
2007,06,20,12,41,22.40
2007,06,20,12,42,22.40
2007,06,20,12,43,22.40
2007,06,20,12,44,22.40
2007,06,20,12,45,22.40
2007,06,20,12,46,22.50
2007,06,20,12,47,22.50
2007,06,20,12,48,22.40
2007,06,20,12,49,22.40
2007,06,20,12,50,22.40
2007,06,20,12,51,22.50
2007,06,20,12,52,22.50
2007,06,20,12,53,22.50
2007,06,20,12,54,22.30
2007,06,20,12,55,22.20
2007,06,20,12,56,22.00
2007,06,20,12,57,21.70
2007,06,20,12,58,21.60
2007,06,20,12,59,21.50
2007,06,20,13,00,21.20
2007,06,20,13,01,21.10
2007,06,20,13,02,21.00
2007,06,20,13,03,21.00
2007,06,20,13,04,21.10
2007,06,20,13,05,21.20
2007,06,20,13,06,21.30
2007,06,20,13,07,21.40
2007,06,20,13,08,21.50
2007,06,20,13,09,21.60
2007,06,20,13,10,21.60
2007,06,20,13,11,21.70
2007,06,20,13,12,21.80
2007,06,20,13,13,21.90
2007,06,20,13,14,22.00
2007,06,20,13,15,22.10
2007,06,20,13,16,22.10
2007,06,20,13,17,22.20
2007,06,20,13,18,22.20
2007,06,20,13,19,22.10
2007,06,20,13,20,22.00
2007,06,20,13,21,21.80
2007,06,20,13,22,21.80
2007,06,20,13,23,21.80
2007,06,20,13,24,21.90
2007,06,20,13,25,21.90
2007,06,20,13,26,22.00
2007,06,20,13,27,22.00
2007,06,20,13,28,22.10
2007,06,20,13,29,22.10
2007,06,20,13,30,22.10
2007,06,20,13,31,22.20
2007,06,20,13,32,22.20
2007,06,20,13,33,22.30
2007,06,20,13,34,22.40
2007,06,20,13,35,22.40
2007,06,20,13,36,22.40
2007,06,20,13,37,22.40
2007,06,20,13,38,22.40
2007,06,20,13,39,22.40
2007,06,20,13,40,22.40
2007,06,20,13,41,22.50
2007,06,20,13,42,22.50
2007,06,20,13,43,22.40
2007,06,20,13,44,22.40
2007,06,20,13,45,22.40
2007,06,20,13,46,22.30
2007,06,20,13,47,22.20
2007,06,20,13,48,22.10
2007,06,20,13,49,22.00
2007,06,20,13,50,22.00
2007,06,20,13,51,22.00
2007,06,20,13,52,21.90
2007,06,20,13,53,21.90
2007,06,20,13,54,22.00
2007,06,20,13,55,22.10
2007,06,20,13,56,22.10
2007,06,20,13,57,22.20
2007,06,20,13,58,22.30
2007,06,20,13,59,22.40
2007,06,20,14,00,22.50
2007,06,20,14,01,22.60
2007,06,20,14,02,22.70
2007,06,20,14,03,22.90
2007,06,20,14,04,23.00
2007,06,20,14,05,23.10
2007,06,20,14,06,23.20
2007,06,20,14,07,23.20
2007,06,20,14,08,23.20
2007,06,20,14,09,23.30
2007,06,20,14,10,23.30
2007,06,20,14,11,23.30
2007,06,20,14,12,23.30
2007,06,20,14,13,23.20
2007,06,20,14,14,23.20
2007,06,20,14,15,23.20
2007,06,20,14,16,23.20
2007,06,20,14,17,23.10
2007,06,20,14,18,23.00
2007,06,20,14,19,22.90
2007,06,20,14,20,22.70
2007,06,20,14,21,22.60
2007,06,20,14,22,22.50
2007,06,20,14,23,22.40
2007,06,20,14,24,22.40
2007,06,20,14,25,22.30
2007,06,20,14,26,22.30
2007,06,20,14,27,22.30
2007,06,20,14,28,22.30
2007,06,20,14,29,22.20
2007,06,20,14,30,22.20
2007,06,20,14,31,22.10
2007,06,20,14,32,22.00
2007,06,20,14,33,21.90
2007,06,20,14,34,21.80
2007,06,20,14,35,21.70
2007,06,20,14,36,21.60
2007,06,20,14,37,21.50
2007,06,20,14,38,21.30
2007,06,20,14,39,21.30
2007,06,20,14,40,21.30
2007,06,20,14,41,21.20
2007,06,20,14,42,21.20
2007,06,20,14,43,21.20
2007,06,20,14,44,21.30
2007,06,20,14,45,21.30
2007,06,20,14,46,21.30
2007,06,20,14,47,21.40
2007,06,20,14,48,21.40
2007,06,20,14,49,21.60
2007,06,20,14,50,21.80
2007,06,20,14,51,21.90
2007,06,20,14,52,22.00
2007,06,20,14,53,22.10
2007,06,20,14,54,22.10
2007,06,20,14,55,22.20
2007,06,20,14,56,22.20
2007,06,20,14,57,22.10
2007,06,20,14,58,22.10
2007,06,20,14,59,22.10
2007,06,20,15,00,22.10
2007,06,20,15,01,22.10
2007,06,20,15,02,22.00
2007,06,20,15,03,22.00
2007,06,20,15,04,21.80
2007,06,20,15,05,21.60
2007,06,20,15,06,21.40
2007,06,20,15,07,21.10
2007,06,20,15,08,20.80
2007,06,20,15,09,20.50
2007,06,20,15,10,20.20
2007,06,20,15,11,20.00
2007,06,20,15,12,19.90
2007,06,20,15,13,19.80
2007,06,20,15,14,19.80
2007,06,20,15,15,19.80
2007,06,20,15,16,19.80
2007,06,20,15,17,19.80
2007,06,20,15,18,19.70
2007,06,20,15,19,19.50
2007,06,20,15,20,19.30
2007,06,20,15,21,19.20
2007,06,20,15,22,19.10
2007,06,20,15,23,19.10
2007,06,20,15,24,19.10
2007,06,20,15,25,19.10
2007,06,20,15,26,19.10
2007,06,20,15,27,19.10
2007,06,20,15,28,19.20
2007,06,20,15,29,19.30
2007,06,20,15,30,19.40
2007,06,20,15,31,19.40
2007,06,20,15,32,19.50
2007,06,20,15,33,19.60
2007,06,20,15,34,19.70
2007,06,20,15,35,19.90
2007,06,20,15,36,19.90
2007,06,20,15,37,19.90
2007,06,20,15,38,20.00
2007,06,20,15,39,20.10
2007,06,20,15,40,20.10
2007,06,20,15,41,20.20
2007,06,20,15,42,20.20
2007,06,20,15,43,20.30
2007,06,20,15,44,20.50
2007,06,20,15,45,20.60
2007,06,20,15,46,20.70
2007,06,20,15,47,20.70
2007,06,20,15,48,20.80
2007,06,20,15,49,20.90
2007,06,20,15,50,20.90
2007,06,20,15,51,20.90
2007,06,20,15,52,21.00
2007,06,20,15,53,21.10
2007,06,20,15,54,21.00
2007,06,20,15,55,20.80
2007,06,20,15,56,20.60
2007,06,20,15,57,20.50
2007,06,20,15,58,20.40
2007,06,20,15,59,20.30
2007,06,20,16,00,20.30
2007,06,20,16,01,20.30
2007,06,20,16,02,20.30
2007,06,20,16,03,20.20
2007,06,20,16,04,20.10
2007,06,20,16,05,20.10
2007,06,20,16,06,20.10
2007,06,20,16,07,20.10
2007,06,20,16,08,20.10
2007,06,20,16,09,20.10
2007,06,20,16,10,20.00
2007,06,20,16,11,19.90
2007,06,20,16,12,20.10
2007,06,20,16,13,20.10
2007,06,20,16,14,20.10
2007,06,20,16,15,20.20
2007,06,20,16,16,20.30
2007,06,20,16,17,20.40
2007,06,20,16,18,20.50
2007,06,20,16,19,20.60
2007,06,20,16,20,20.70
2007,06,20,16,21,20.80
2007,06,20,16,22,20.80
2007,06,20,16,23,21.00
2007,06,20,16,24,21.00
2007,06,20,16,25,21.10
2007,06,20,16,26,21.30
2007,06,20,16,27,21.40
2007,06,20,16,28,21.50
2007,06,20,16,29,21.60
2007,06,20,16,30,21.80
2007,06,20,16,31,21.90
2007,06,20,16,32,22.00
2007,06,20,16,33,22.10
2007,06,20,16,34,22.20
2007,06,20,16,35,22.30
2007,06,20,16,36,22.40
2007,06,20,16,37,22.50
2007,06,20,16,38,22.60
2007,06,20,16,39,22.60
2007,06,20,16,40,22.70
2007,06,20,16,41,22.80
2007,06,20,16,42,22.80
2007,06,20,16,43,22.80
2007,06,20,16,44,22.80
2007,06,20,16,45,22.80
2007,06,20,16,46,22.80
2007,06,20,16,47,22.90
2007,06,20,16,48,22.90
2007,06,20,16,49,22.90
2007,06,20,16,50,23.10
2007,06,20,16,51,23.20
2007,06,20,16,52,23.30
2007,06,20,16,53,23.30
2007,06,20,16,54,23.50
2007,06,20,16,55,23.60
2007,06,20,16,56,23.70
2007,06,20,16,57,23.80
2007,06,20,16,58,23.90
2007,06,20,16,59,23.90
2007,06,20,17,00,23.90
2007,06,20,17,01,23.80
2007,06,20,17,02,23.90
2007,06,20,17,03,23.90
2007,06,20,17,04,24.00
2007,06,20,17,05,24.10
2007,06,20,17,06,24.10
2007,06,20,17,07,24.10
2007,06,20,17,08,24.10
2007,06,20,17,09,24.10
2007,06,20,17,10,24.00
2007,06,20,17,11,23.90
2007,06,20,17,12,24.00
2007,06,20,17,13,24.10
2007,06,20,17,14,24.10
2007,06,20,17,15,24.10
2007,06,20,17,16,24.10
2007,06,20,17,17,24.10
2007,06,20,17,18,24.10
2007,06,20,17,19,24.10